Location: Iesi
(43.5167°N, 13.2333°E)
Time: 02:27:25
(UTC+00:00)

Okean 1 - Pass Details

Date: 08 August 2020
Orbit: 539 x 554 km, 82.5° (Epoch: 19 September)

Event Time Altitude Azimuth Distance (km) Brightness Sun altitude
Rises 20:24:38 0° 359° (N) 2,737 7.6 -19.3°
Reaches altitude 10° 20:26:56 10° 7° (N) 1,840 6.5 -19.6°
Maximum altitude 20:30:44 38° 77° (ENE) 849 4.0 -20.1°
Enters shadow 20:30:48 38° 79° (E) 850 4.0 -20.1°
